Regional Weather Roundup
Issued by NWS

Home | Current Version | Previous Version | Text Only | Print | Product List | Glossary Off
Versions: 1 2 3 4 5 6 7 8 9 10 11 12 13 14 15 16 17 18 19 20 21 22 23 24 25 26 27 28 29 30 31 32 33 34 35 36 37 38 39 40 41 42 43 44 45 46 47 48 49 50

000
ASUS45 KTFX 290904
RWRMT
MONTANA HOURLY WEATHER ROUNDUP
NATIONAL WEATHER SERVICE GREAT FALLS MT
304 AM MDT FRI AUG 29 2014

NOTE: "FAIR" INDICATES FEW OR NO CLOUDS BELOW 12000 FEET WITH NO
SIGNIFICANT WEATHER AND/OR OBSTRUCTIONS TO VISIBILITY.

* THESE STATIONS ARE NOT UNDER NWS QUALITY CONTROL. THEY DO NOT
   REPORT WEATHER SUCH AS PRECIPITATION OR FOG.

MTZ001>007-043-291000-
WEST OF THE DIVIDE
CITY           SKY/WX    TMP DP  RH WIND       PRES   REMARKS
KALISPELL      CLEAR     54  48  80 NW5       30.02S
MISSOULA       CLEAR     55  43  64 CALM      30.04S
BUTTE          CLEAR     54  39  57 S5        30.14R
MULLAN PASS    MOCLDY    54  37  53 W5        30.14S
* LINCOLN      N/A       51  47  86 NE7G15     N/A
* LOOKOUT PASS N/A       53  41  64 N/A        N/A
* POLSON       N/A       55  46  72 NE2        N/A
* RONAN APT    CLEAR     57  48  72 N/A        N/A
* SEELEY LAKE  N/A       44  40  86 E2         N/A
* THOMP F APT  PTCLDY    51  43  74 N4         N/A
$$

MTZ008-052>055-291000-
SOUTHWEST MONTANA
CITY           SKY/WX    TMP DP  RH WIND       PRES   REMARKS
BOZEMAN        CLOUDY    57  52  83 N6        30.09R
DILLON         PTCLDY    57  46  67 S9        30.09S
W YELLOWSTONE  MOCLDY    48  46  93 SW3       30.21F
* THREE FORKS  CLOUDY    63  63 100 N6         N/A
* BOULDER HILL N/A       50  45  83 N14G19     N/A
* MONIDA PASS  N/A       47  45  93 W4         N/A
* RAYNOLDS PAS N/A       49  33  54 S6         N/A
* WHITEHALL    N/A       60  44  56 NE9G18     N/A
* WISE RIVER   N/A       50  37  61 SW3G8      N/A
$$

MTZ009>010-012-014-046-048-049-054-291000-
EAST SLOPES AND CENTRAL MONTANA
CITY           SKY/WX    TMP DP  RH WIND       PRES   REMARKS
CUT BANK       CLOUDY    48  46  93 CALM      30.09R
GREAT FALLS    CLEAR     52  48  86 SW9       30.09F
HELENA         CLEAR     55  48  77 W6        30.12F
MALMSTROM AFB  CLEAR     54  50  86 SW9       30.11F
* CONRAD       CLEAR     48  48 100 N/A        N/A
* EAST GLACIER N/A       47  45  93 S3         N/A
* MONARCH      N/A       50  45  83 S6         N/A
* PENDROY      N/A       48  47  96 SW11       N/A
* ROGERS PASS  N/A       45  43  93 N1         N/A
* SAINT MARY   N/A       45  45 100 SE2        N/A
* SWEET GRASS  N/A       49  49 100 N7         N/A
$$

MTZ011-013-016-021-035-040-045-047-050-051-291000-
NORTH CENTRAL MONTANA
CITY           SKY/WX    TMP DP  RH WIND       PRES   REMARKS
HAVRE          LGT RAIN  54  52  93 W6        30.06S
LEWISTOWN      CLOUDY    55  48  77 W8        30.11F
* CHESTER      N/A       52  47  83 E1         N/A
* DENTON       N/A       56  52  87 SW6        N/A
* GEYSER       N/A       54  50  86 SW9        N/A
* JUDITH GAP   N/A       53  50  90 VRB21      N/A
* LOMA         N/A       58  51  78 W10        N/A
$$

MTZ017>020-022>027-061-062-291000-
NORTHEAST MONTANA
CITY           SKY/WX    TMP DP  RH WIND       PRES   REMARKS
GLASGOW        CLOUDY    61  57  87 NW3       29.94R
GLENDIVE       PTCLDY    63  54  73 N13G20    29.92R
JORDAN         CLOUDY    61  55  81 NW13      30.00R
SIDNEY         MOCLDY    64  54  70 N13       29.90R
WOLF POINT     LGT RAIN  63  57  81 N8        29.89S
* BEAVER HILL  N/A       62  56  81 N27G32     N/A
* CIRCLE       N/A       61  56  84 NE5        N/A
* LINDSAY DVD  N/A       61  52  72 N20G27     N/A
* NAVAJO       N/A       57  54  90 VRB12      N/A
$$

MTZ028>042-056>058-291000-
SOUTHCENTRAL AND SOUTHEAST MONTANA
CITY           SKY/WX    TMP DP  RH WIND       PRES   REMARKS
BAKER          PTCLDY    55  52  90 W3        29.86R
BILLINGS       CLOUDY    63  54  73 N10       30.07R
LIVINGSTON     CLOUDY    59  48  67 NW13G21   30.10R
MILES CITY     CLOUDY    66  55  68 NE12G28   29.92R
* LAUREL APT   CLOUDY    64  52  65 N8         N/A
* ROUNDUP APT  CLOUDY    61  50  67 N5         N/A
* ALZADA       N/A       56  49  77 NW4        N/A
* HYSHAM       N/A       62  52  70 VRB10G21    N/A
* LAME DEER    N/A       60  53  78 W19G26     N/A
* REED POINT   N/A       62  50  65 E4G11      N/A
* ROSCOE HILL  N/A       59  39  48 S7G15      N/A
$$

REGIONAL REPORTS...DAKOTAS
CITY           SKY/WX    TMP DP  RH WIND       PRES   REMARKS
WILLISTON      MOCLDY    64  54  70 N20G29    29.86R
DICKINSON      PTCLDY    57  54  90 S6        29.79F
BEACH          N/A       59  59 100 N18G24    29.90R
CROSBY         N/A       57  57 100 W13       29.87R
TIOGA          PTCLDY    61  59  93 N17G23    29.88R
WATFORD CITY   CLOUDY    63  57  81 N14G22    29.86R
BISMARCK       FOG       59  59 100 SE3       29.80S VSB 3/4
GRAND FORKS    CLOUDY    66  64  93 S8        29.77F
FARGO          CLOUDY    66  64  93 S6        29.79S
BUFFALO SD     CLEAR     63  52  68 W8        29.80R
RAPID CITY     CLEAR     59  52  78 W9        29.89S
$$

REGIONAL REPORTS...WYOMING/IDAHO/WASHINGTON
CITY           SKY/WX    TMP DP  RH WIND       PRES   REMARKS
GILLETTE       PTCLDY    63  48  58 VRB3      29.96S
SHERIDAN       CLOUDY    64  50  61 NW31G40   30.03R
CODY           CLOUDY    61  46  58 N7        30.13S
YELLOWSTONE LA MOCLDY    45  45 100 CALM      30.30S
SALMON         CLEAR     57  45  64 CALM      30.06S
MULLAN PASS    MOCLDY    54  37  53 W5        30.14S
SAND POINT     CLEAR     52  52 100 CALM      29.97S
SPOKANE        MOCLDY    63  43  48 S8        29.95F

$$



USA.gov is the U.S. government's official web portal to all federal, state and local government web resources and services.